| time (UTC) | temp C | wind direction | speed KPH | gust KPH | rain 1hr cm | rain 24hr cm | rain mn cm | humidity % | barometer mb |
| 20260904003004 | 26 | 105 | 6.4 | 12.9 | 0.00 | 0.13 | 0.08 | 100 | 1014.2 |
| 20260904000005 | 26 | 142 | 4.8 | 14.5 | 0.00 | 0.13 | 0.08 | 100 | 1013.6 |
| 20260903234506 | 26 | 136 | 4.8 | 11.3 | 0.00 | 0.13 | 0.08 | 100 | 1013.9 |
| 20260903233001 | 26 | 131 | 4.8 | 14.5 | 0.00 | 0.13 | 0.08 | 100 | 1013.6 |
| 20260903231504 | 26 | 124 | 4.8 | 9.7 | 0.00 | 0.13 | 0.08 | 100 | 1013.5 |
| 20260903230004 | 26 | 62 | 3.2 | 4.8 | 0.00 | 0.13 | 0.08 | 100 | 1013.3 |
| 20260903224507 | 25 | 75 | 4.8 | 6.4 | 0.00 | 0.13 | 0.08 | 100 | 1013.2 |
| 20260903223006 | 25 | 127 | 4.8 | 9.7 | 0.00 | 0.13 | 0.08 | 100 | 1013.5 |
| 20260903220004 | 25 | 121 | 6.4 | 14.5 | 0.00 | 0.10 | 0.05 | 100 | 1013.4 |
| 20260903214506 | 25 | 30 | 1.6 | 3.2 | 0.00 | 0.10 | 0.05 | 100 | 1013.3 |
| 20260903213005 | 25 | 149 | 1.6 | 3.2 | 0.00 | 0.10 | 0.05 | 100 | 1013.3 |
| 20260903211506 | 25 | 143 | 0.0 | 0.0 | 0.00 | 0.10 | 0.05 | 100 | 1013.0 |
| 20260903210005 | 25 | 165 | 0.0 | 0.0 | 0.00 | 0.10 | 0.05 | 100 | 1012.5 |
| 20260903204506 | 25 | 70 | 1.6 | 3.2 | 0.00 | 0.10 | 0.05 | 100 | 1012.4 |
| 20260903203007 | 25 | 35 | 3.2 | 4.8 | 0.00 | 0.10 | 0.05 | 100 | 1012.0 |
| 20260903201503 | 25 | 35 | 1.6 | 3.2 | 0.00 | 0.10 | 0.05 | 100 | 1012.2 |
| 20260903191507 | 25 | 129 | 1.6 | 1.6 | 0.00 | 0.10 | 0.05 | 100 | 1011.3 |
| 20260903190003 | 25 | 110 | 0.0 | 0.0 | 0.00 | 0.10 | 0.05 | 100 | 1011.0 |
| 20260903184504 | 25 | 143 | 0.0 | 1.6 | 0.00 | 0.10 | 0.05 | 100 | 1010.8 |
| 20260903183006 | 25 | 86 | 1.6 | 3.2 | 0.00 | 0.10 | 0.05 | 100 | 1010.8 |
| 20260903181503 | 25 | 353 | 1.6 | 3.2 | 0.00 | 0.10 | 0.05 | 100 | 1010.8 |
| 20260903180004 | 25 | 107 | 0.0 | 1.6 | 0.00 | 0.10 | 0.05 | 100 | 1010.8 |
| 20260903173004 | 25 | 349 | 0.0 | 0.0 | 0.00 | 0.08 | 0.03 | 100 | 1010.6 |
| 20260903171507 | 25 | 152 | 0.0 | 0.0 | 0.00 | 0.08 | 0.03 | 100 | 1010.7 |
| 20260903170003 | 25 | 152 | 0.0 | 0.0 | 0.00 | 0.08 | 0.03 | 100 | 1010.6 |
| 20260903164505 | 25 | 152 | 0.0 | 0.0 | 0.00 | 0.08 | 0.03 | 100 | 1010.8 |
| 20260903163004 | 25 | 117 | 3.2 | 8.0 | 0.00 | 0.08 | 0.03 | 100 | 1010.8 |
| 20260903161507 | 26 | 79 | 1.6 | 1.6 | 0.00 | 0.08 | 0.03 | 100 | 1010.8 |
| 20260903160003 | 26 | 37 | 0.0 | 1.6 | 0.00 | 0.05 | 0.00 | 100 | 1010.7 |
| 20260903151505 | 26 | 6 | 0.0 | 0.0 | 0.00 | 0.05 | 0.00 | 100 | 1010.7 |
| 20260903150004 | 26 | 343 | 4.8 | 8.0 | 0.00 | 0.05 | 0.00 | 100 | 1010.9 |
| 20260903144503 | 26 | 0 | 3.2 | 8.0 | 0.00 | 0.05 | 0.05 | 100 | 1011.2 |
| 20260903143005 | 25 | 340 | 3.2 | 4.8 | 0.00 | 0.05 | 0.05 | 100 | 1011.4 |
| 20260903141506 | 26 | 349 | 4.8 | 6.4 | 0.00 | 0.05 | 0.05 | 100 | 1011.3 |
| 20260903140003 | 26 | 347 | 3.2 | 4.8 | 0.00 | 0.05 | 0.05 | 100 | 1011.7 |
| 20260903134504 | 26 | 15 | 0.0 | 0.0 | 0.00 | 0.05 | 0.05 | 100 | 1011.7 |
| 20260903133006 | 26 | 15 | 0.0 | 0.0 | 0.00 | 0.05 | 0.05 | 100 | 1012.1 |
| 20260903131507 | 26 | 15 | 0.0 | 0.0 | 0.00 | 0.05 | 0.05 | 100 | 1012.5 |
| 20260903130007 | 26 | 15 | 0.0 | 0.0 | 0.00 | 0.05 | 0.05 | 100 | 1013.0 |
| 20260903124508 | 26 | 15 | 0.0 | 0.0 | 0.00 | 0.05 | 0.05 | 100 | 1013.2 |
| 20260903123003 | 26 | 15 | 0.0 | 0.0 | 0.00 | 0.05 | 0.05 | 100 | 1013.4 |
| 20260903120008 | 26 | 13 | 1.6 | 1.6 | 0.00 | 0.05 | 0.05 | 97 | 1013.5 |
| 20260903113005 | 26 | 13 | 0.0 | 0.0 | 0.00 | 0.05 | 0.05 | 93 | 1013.7 |
| 20260903111502 | 26 | 15 | 0.0 | 0.0 | 0.00 | 0.05 | 0.05 | 88 | 1013.5 |
| 20260903104504 | 26 | 6 | 1.6 | 3.2 | 0.00 | 0.05 | 0.05 | 80 | 1013.1 |
| 20260903103003 | 26 | 125 | 3.2 | 4.8 | 0.00 | 0.05 | 0.05 | 77 | 1012.8 |
| 20260903101505 | 26 | 82 | 1.6 | 3.2 | 0.00 | 0.05 | 0.05 | 69 | 1012.7 |
| 20260903100002 | 26 | 107 | 3.2 | 4.8 | 0.00 | 0.05 | 0.05 | 67 | 1012.7 |
| 20260903094503 | 26 | 62 | 6.4 | 14.5 | 0.00 | 0.05 | 0.05 | 66 | 1012.5 |
| 20260903093008 | 26 | 150 | 4.8 | 9.7 | 0.00 | 0.05 | 0.05 | 67 | 1012.5 |
| 20260903091503 | 26 | 44 | 8.0 | 14.5 | 0.00 | 0.05 | 0.05 | 67 | 1012.5 |
| 20260903090009 | 26 | 141 | 9.7 | 16.1 | 0.00 | 0.05 | 0.05 | 69 | 1012.7 |
| 20260903084504 | 27 | 44 | 6.4 | 11.3 | 0.00 | 0.05 | 0.05 | 73 | 1012.7 |
| 20260903083002 | 27 | 70 | 8.0 | 14.5 | 0.00 | 0.05 | 0.05 | 78 | 1012.7 |
| 20260903081504 | 27 | 96 | 8.0 | 16.1 | 0.00 | 0.05 | 0.05 | 81 | 1012.8 |
| 20260903080005 | 27 | 359 | 6.4 | 11.3 | 0.00 | 0.05 | 0.05 | 91 | 1012.9 |
| 20260903074508 | 28 | 73 | 8.0 | 16.1 | 0.00 | 0.05 | 0.05 | 100 | 1012.3 |
| 20260903073004 | 28 | 53 | 8.0 | 14.5 | 0.00 | 0.05 | 0.05 | 100 | 1012.3 |
| 20260903070006 | 28 | 148 | 3.2 | 6.4 | 0.00 | 0.05 | 0.05 | 100 | 1011.6 |
| 20260903064507 | 29 | 352 | 1.6 | 4.8 | 0.00 | 0.05 | 0.05 | 100 | 1012.9 |
| 20260903063002 | 29 | 17 | 1.6 | 6.4 | 0.00 | 0.05 | 0.05 | 100 | 1011.7 |
| 20260903061504 | 29 | 342 | 1.6 | 11.3 | 0.00 | 0.05 | 0.05 | 100 | 1012.5 |
| 20260903060005 | 29 | 4 | 1.6 | 4.8 | 0.00 | 0.03 | 0.03 | 100 | 1011.5 |
| 20260903054506 | 29 | 347 | 0.0 | 0.0 | 0.00 | 0.03 | 0.03 | 100 | 1011.2 |
| 20260903053019 | 29 | 13 | 1.6 | 3.2 | 0.00 | 0.03 | 0.03 | 100 | 1011.7 |
| 20260903051508 | 30 | 359 | 1.6 | 8.0 | 0.00 | 0.00 | 0.00 | 100 | 1011.6 |
| 20260903044506 | 30 | 349 | 8.0 | 12.9 | 0.00 | 0.00 | 0.00 | 100 | 1012.1 |
| 20260903043008 | 30 | 6 | 3.2 | 4.8 | 0.00 | 0.00 | 0.00 | 100 | 1012.0 |
| 20260903041517 | 30 | 359 | 1.6 | 4.8 | 0.00 | 0.00 | 0.00 | 100 | 1012.2 |
| 20260903040008 | 29 | 342 | 3.2 | 6.4 | 0.00 | 0.00 | 0.00 | 100 | 1012.4 |
| 20260903030007 | 29 | 32 | 4.8 | 11.3 | 0.00 | 0.00 | 0.00 | 100 | 1012.4 |
| 20260903024509 | 29 | 359 | 3.2 | 12.9 | 0.00 | 0.00 | 0.00 | 100 | 1012.3 |
| 20260903023003 | 28 | 359 | 3.2 | 12.9 | 0.00 | 0.00 | 0.00 | 100 | 1012.3 |
| 20260903021505 | 28 | 4 | 3.2 | 14.5 | 0.00 | 0.00 | 0.00 | 100 | 1012.5 |
| 20260903020006 | 28 | 359 | 6.4 | 12.9 | 0.00 | 0.00 | 0.00 | 100 | 1012.4 |
| 20260903011502 | 28 | 359 | 1.6 | 8.0 | 0.00 | 0.00 | 0.00 | 100 | 1012.6 |
| 20260903010004 | 28 | 359 | 3.2 | 9.7 | 0.00 | 0.00 | 0.00 | 100 | 1012.7 |